Regional Weather Roundup
Issued by NWS

Home | Current Version | Previous Version | Graphics & Text | Print | Product List | Glossary On
Versions: 1 2 3 4 5 6 7 8 9 10 11 12 13 14 15 16 17 18 19 20 21 22 23 24 25 26 27 28
000
ASUS45 KPSR 261610
RWRAZ

ARIZONA HOURLY REGIONAL WEATHER ROUNDUP
NATIONAL WEATHER SERVICE PHOENIX AZ
900 AM MST THU APR 26 2018

NOTE: FAIR INDICATES FEW OR NO CLOUDS BELOW 12,000 FEET WITH NO
SIGNIFICANT WEATHER AND/OR OBSTRUCTIONS TO VISIBILITY.

AZZ001>003-036-261700-
NORTHWEST ARIZONA

CITY           SKY/WX    TMP DP  RH WIND       PRES   REMARKS
BULLHEAD CITY  SUNNY     81  21  11 N5        29.87S
KINGMAN          N/A     78  23  13 CALM      30.02R
$$

AZZ004>008-015-016-018-261700-
NORTH CENTRAL ARIZONA

CITY           SKY/WX    TMP DP  RH WIND       PRES   REMARKS
GRAND CANYON   SUNNY     69  17  13 NE12      30.21R
WILLIAMS       SUNNY     68  16  13 NE6       30.18S
PRESCOTT       SUNNY     70  21  15 CALM      30.11S
FLAGSTAFF      SUNNY     66  22  18 NE6       30.21S
PAYSON         SUNNY     73  19  13 S5        30.10S
PAGE           SUNNY     68  22  17 NW3       30.11S
$$

AZZ009>014-017-261700-
NORTHEAST ARIZONA

CITY           SKY/WX    TMP DP  RH WIND       PRES   REMARKS
WINSLOW        SUNNY     64   9  11 E7        30.13S
SAINT JOHNS    SUNNY     65  13  13 CALM      30.14S
WINDOW ROCK    SUNNY     67   6   9 VRB5      30.19F
SHOW LOW       SUNNY     70   9   9 CALM      30.18S
$$

AZZ540-542>544-546-548-261700-
GREATER PHOENIX AREA

CITY           SKY/WX    TMP DP  RH WIND       PRES   REMARKS
PHOENIX        PTSUNNY   80  32  17 SE6       29.88R
BUCKEYE        PTSUNNY   81  36  19 SW5       29.90R
GLENDALE       PTSUNNY   81  32  17 CALM      29.91R
DEER VALLEY    MOSUNNY   80  27  14 S5        29.90S
SCOTTSDALE     MOSUNNY   80  31  16 SE7       29.92R
MESA-FALCON    PTSUNNY   81  30  16 SE8       29.91S
MESA-GATEWAY   PTSUNNY   79  32  18 SE8       29.92R
CHANDLER       PTSUNNY   79  36  21 CALM      29.90R
$$

AZZ539-553-261700-
SOUTHWEST MARICOPA COUNTY AND PINAL COUNTY

CITY           SKY/WX    TMP DP  RH WIND       PRES   REMARKS
CASA GRANDE    PTSUNNY   80  33  18 SW10      29.93R
GILA BEND      FAIR      81  28  14 CALM      29.88R
$$

AZZ503-504-507>509-261700-
SOUTHEAST ARIZONA

CITY           SKY/WX    TMP DP  RH WIND       PRES   REMARKS
TUCSON         PTSUNNY   78  30  17 CALM      30.00S
DAVIS-MONTHAN  CLOUDY    79  33  19 CALM      29.98S
NOGALES        PTSUNNY   76  33  21 SE5       30.07R
SIERRA VISTA   PTSUNNY   74  21  13 S3        30.11R
DOUGLAS        SUNNY     74  26  16 VRB5      30.07F
SAFFORD        MOSUNNY   78  21  12 SE14      29.99F
$$

AZZ532-261700-
SOUTHWEST ARIZONA

CITY           SKY/WX    TMP DP  RH WIND       PRES   REMARKS
YUMA           CLOUDY    78  41  26 SW5       29.87S
$$

CAZ041-043-047-048-061-525>527-560>570-261700-
SOUTHERN CALIFORNIA

CITY           SKY/WX    TMP DP  RH WIND       PRES   REMARKS
DOWNTOWN L.A.  NOT AVBL
L.A. AIRPORT   PTSUNNY   58  51  78 VRB3      30.05R
SAN DIEGO      CLOUDY    61  51  70 NW8       30.07R
BURBANK        CLOUDY    55  52  89 S5        30.03R FOG
ONTARIO        MOSUNNY   57  50  77 W3        30.04R HAZE
RIVERSIDE      SUNNY     58  51  78 VRB5      30.03F HAZE
PALM SPRINGS   SUNNY     81  41  24 S3        29.87F
EL CENTRO NAS  PTSUNNY   84  19   9 W3        29.86R
IMPERIAL       PTSUNNY   82  20  10 NW3       29.84S
BLYTHE         SUNNY     83  30  14 W3        29.85S
NEEDLES        SUNNY     84  20   9 N3        29.88S
$$

NVZ020-UTZ003-261700-
SOUTHERN NEVADA-UTAH

CITY           SKY/WX    TMP DP  RH WIND       PRES   REMARKS
LAS VEGAS      MOSUNNY   80  26  13 SE3       29.96R
SALT LAKE CITY SUNNY     63  33  32 VRB3      30.18F
$$

NMZ009-TXZ055-261700-
NEW MEXICO-WEST TEXAS

CITY           SKY/WX    TMP DP  RH WIND       PRES   REMARKS
ALBUQUERQUE    MOSUNNY   63  26  24 CALM      30.12F
EL PASO        PTSUNNY   65  38  36 VRB3      30.07S
$$


........................KEY........................
SKY/WX - SKY CONDITION/WEATHER
TMP    - TEMPERATURE IN FAHRENHEIT
DP     - DEW POINT IN FAHRENHEIT
RH     - RELATIVE HUMIDITY IN PERCENT
WIND   - DIRECTION AND SPEED IN MILES PER HOUR (MPH)
VRB    - VARIABLE WIND DIRECTION
PRES   - MEAN SEA LEVEL PRESSURE IN INCHES OF MERCURY
         F - FALLING PRESSURE   R - RISING PRESSURE
         S - STEADY PRESSURE
VSB    - VISIBILITY IN MILES
HX     - HEAT INDEX IN FAHRENHEIT
WCI    - WIND CHILL INDEX IN FAHRENHEIT
TC     - TEMPERATURE IN CELSIUS WHICH IS ALSO KNOWN AS
         TEMPERATURE IN CENTIGRADE
AFB    - AIR FORCE BASE
         LUKE AFB IS LUKE AIR FORCE BASE
         DAVIS-MONTHAN IS DAVIS-MONTHAN AIR FORCE BASE
NAS    - NAVAL AIR STATION
         EL CENTRO NAS IS EL CENTRO NAVAL AIR STATION
N/A    - NOT AVAILABLE





USA.gov is the U.S. government's official web portal to all federal, state and local government web resources and services.